Simultaneous Nadir Overpasses (SNOs) Predictions

Prediction of SNOs between FY3D and NOAA-19 Satellite Orbit:

Table of predicted SNOs for the next 14.0 days since TLE Epoch: 11/19/2022
Index Date (FY3D) Time (FY3D) Lat,Lon (FY3D) SZA (FY3D ) Date (NOAA-19) Time (NOAA-19) Lat,Lon (NOAA-19) SZA (NOAA-19 ) Distance(km) Time Diff (sec)
1 12/01/2022 09:17:09 76.90, 28.16 98.83 12/01/2022 09:15:57 76.89, 27.05 98.88 28.07 72
2 12/01/2022 10:07:57 -77.03,-165.09 81.02 12/01/2022 10:06:56 -77.04,-165.05 81.00 1.38 61
3 12/01/2022 10:58:44 77.04, 2.19 99.00 12/01/2022 10:57:53 77.04, 2.22 99.01 1.02 51
4 12/01/2022 11:49:29 -77.04, 169.49 81.00 12/01/2022 11:48:55 -77.07, 169.56 80.97 3.32 34
5 12/01/2022 12:40:16 77.05, -23.24 99.02 12/01/2022 12:39:52 77.07, -23.16 99.04 2.85 24
6 12/01/2022 13:31:01 -77.05, 144.06 80.97 12/01/2022 13:30:55 -77.05, 143.99 80.97 1.65 6
7 12/01/2022 14:21:48 77.06, -48.67 99.05 12/01/2022 14:21:52 77.05, -48.74 99.04 2.03 4
8 12/01/2022 15:12:33 -77.06, 118.63 80.95 12/01/2022 15:12:54 -77.07, 118.61 80.94 1.36 21
9 12/01/2022 16:03:20 77.07, -74.09 99.07 12/01/2022 16:03:51 77.08, -74.12 99.07 0.89 31
10 12/01/2022 16:54:05 -77.07, 93.20 80.93 12/01/2022 16:54:53 -77.10, 93.23 80.91 2.91 48
11 12/01/2022 17:44:52 77.08, -99.52 99.09 12/01/2022 17:45:50 77.10, -99.51 99.10 2.08 58
12 12/01/2022 18:35:38 -77.13, 67.59 80.85 12/01/2022 18:36:53 -77.08, 67.66 80.91 5.19 75



Historial Predications of SNOs between FY3D and NOAA-19
